Time,TemperatureF,DewpointF,PressureIn,WindDirection,WindDirectionDegrees,WindSpeedMPH,WindSpeedGustMPH,Humidity,HourlyPrecipIn,Conditions,Clouds,dailyrainin,SoftwareType,DateUTC
2013-07-22 00:01:00,75.0,74.0,29.92,ENE,60,0.0,10.0,96,0.00,,,0.00,,2013-07-22 04:01:00,
2013-07-22 00:22:00,74.0,73.0,29.93,NW,306,1.0,5.0,97,0.00,,,0.00,,2013-07-22 04:22:00,
2013-07-22 00:33:00,74.0,73.0,29.93,North,354,1.0,5.0,97,0.00,,,0.00,,2013-07-22 04:33:00,
2013-07-22 00:43:00,74.0,74.0,29.93,North,359,0.0,5.0,99,0.00,,,0.00,,2013-07-22 04:43:00,
2013-07-22 01:02:00,74.0,74.0,29.93,North,359,1.0,5.0,100,0.00,,,0.00,,2013-07-22 05:02:00,
2013-07-22 01:11:00,73.0,73.0,29.93,North,10,0.0,5.0,100,0.00,,,0.00,,2013-07-22 05:11:00,
2013-07-22 01:22:00,73.0,73.0,29.93,North,10,0.0,5.0,100,0.00,,,0.00,,2013-07-22 05:22:00,
2013-07-22 01:32:00,73.0,73.0,29.93,North,10,0.0,5.0,100,0.00,,,0.00,,2013-07-22 05:32:00,
2013-07-22 01:43:00,73.0,73.0,29.93,North,10,0.0,5.0,100,0.00,,,0.00,,2013-07-22 05:43:00,
2013-07-22 01:52:00,74.0,74.0,29.92,North,0,0.0,5.0,100,0.00,,,0.00,,2013-07-22 05:52:00,
2013-07-22 02:01:00,74.0,74.0,29.92,North,359,0.0,5.0,100,0.00,,,0.00,,2013-07-22 06:01:00,
2013-07-22 02:22:00,74.0,74.0,29.92,North,359,0.0,5.0,100,0.00,,,0.00,,2013-07-22 06:22:00,
2013-07-22 02:33:00,74.0,74.0,29.92,NNW,332,0.0,5.0,100,0.00,,,0.00,,2013-07-22 06:33:00,
2013-07-22 02:43:00,74.0,74.0,29.92,North,6,2.0,5.0,100,0.00,,,0.00,,2013-07-22 06:43:00,
2013-07-22 02:52:00,74.0,74.0,29.91,North,0,0.0,5.0,100,0.00,,,0.00,,2013-07-22 06:52:00,
2013-07-22 03:01:00,74.0,74.0,29.91,North,0,0.0,5.0,100,0.00,,,0.00,,2013-07-22 07:01:00,
2013-07-22 03:12:00,74.0,74.0,29.91,North,354,1.0,5.0,100,0.00,,,0.00,,2013-07-22 07:12:00,
2013-07-22 03:22:00,74.0,74.0,29.91,North,3,1.0,5.0,100,0.00,,,0.00,,2013-07-22 07:22:00,
2013-07-22 03:33:00,74.0,74.0,29.91,North,3,1.0,5.0,100,0.00,,,0.00,,2013-07-22 07:33:00,
2013-07-22 03:43:00,74.0,74.0,29.91,NNE,16,2.0,5.0,100,0.00,,,0.00,,2013-07-22 07:43:00,
2013-07-22 03:53:00,74.0,74.0,29.90,NNE,14,2.0,5.0,100,0.00,,,0.00,,2013-07-22 07:53:00,
2013-07-22 04:02:00,74.0,74.0,29.90,NNE,14,2.0,5.0,100,0.00,,,0.00,,2013-07-22 08:02:00,
2013-07-22 04:11:00,74.0,74.0,29.90,North,8,1.0,5.0,100,0.00,,,0.00,,2013-07-22 08:11:00,
2013-07-22 04:22:00,74.0,74.0,29.90,North,4,0.0,5.0,100,0.00,,,0.00,,2013-07-22 08:22:00,
2013-07-22 04:32:00,74.0,74.0,29.90,North,4,0.0,5.0,100,0.00,,,0.00,,2013-07-22 08:32:00,
2013-07-22 04:43:00,74.0,74.0,29.90,North,2,1.0,5.0,100,0.00,,,0.00,,2013-07-22 08:43:00,
2013-07-22 04:52:00,75.0,75.0,29.91,ENE,65,0.0,5.0,100,0.00,,,0.00,,2013-07-22 08:52:00,
2013-07-22 05:02:00,75.0,75.0,29.91,ENE,65,0.0,5.0,100,0.00,,,0.00,,2013-07-22 09:02:00,
2013-07-22 05:22:00,75.0,75.0,29.91,ENE,59,0.0,5.0,100,0.00,,,0.00,,2013-07-22 09:22:00,
2013-07-22 05:33:00,75.0,75.0,29.91,NE,47,0.0,5.0,100,0.00,,,0.00,,2013-07-22 09:33:00,
2013-07-22 05:42:00,75.0,75.0,29.91,NE,47,1.0,5.0,100,0.00,,,0.00,,2013-07-22 09:42:00,
2013-07-22 05:52:00,75.0,75.0,29.91,NE,47,1.0,5.0,100,0.00,,,0.00,,2013-07-22 09:52:00,
2013-07-22 06:02:00,75.0,75.0,29.91,NNE,18,0.0,5.0,100,0.00,,,0.00,,2013-07-22 10:02:00,
2013-07-22 06:11:00,75.0,75.0,29.92,North,0,0.0,5.0,100,0.00,,,0.00,,2013-07-22 10:11:00,
2013-07-22 06:22:00,75.0,75.0,29.92,North,3,1.0,5.0,100,0.00,,,0.00,,2013-07-22 10:22:00,
2013-07-22 06:32:00,75.0,75.0,29.92,North,3,1.0,5.0,100,0.00,,,0.00,,2013-07-22 10:32:00,
2013-07-22 06:43:00,75.0,75.0,29.92,NNE,25,1.0,5.0,100,0.00,,,0.00,,2013-07-22 10:43:00,
2013-07-22 06:53:00,75.0,75.0,29.92,East,88,1.0,5.0,100,0.00,,,0.00,,2013-07-22 10:53:00,
2013-07-22 07:02:00,75.0,75.0,29.92,ENE,61,2.0,5.0,100,0.00,,,0.00,,2013-07-22 11:02:00,
2013-07-22 07:11:00,75.0,75.0,29.92,NE,47,1.0,5.0,100,0.00,,,0.00,,2013-07-22 11:11:00,
2013-07-22 07:32:00,75.0,75.0,29.92,North,0,2.0,5.0,100,0.00,,,0.00,,2013-07-22 11:32:00,
2013-07-22 07:43:00,76.0,76.0,29.92,NNE,16,1.0,7.0,100,0.00,,,0.00,,2013-07-22 11:43:00,
2013-07-22 07:52:00,76.0,76.0,29.91,NE,50,2.0,7.0,100,0.00,,,0.00,,2013-07-22 11:52:00,
2013-07-22 08:02:00,76.0,76.0,29.91,East,82,2.0,7.0,100,0.00,,,0.00,,2013-07-22 12:02:00,
2013-07-22 08:12:00,76.0,76.0,29.91,East,82,2.0,7.0,100,0.00,,,0.00,,2013-07-22 12:12:00,
2013-07-22 08:22:00,77.0,77.0,29.92,East,90,1.0,7.0,100,0.00,,,0.00,,2013-07-22 12:22:00,
2013-07-22 08:33:00,77.0,77.0,29.92,East,90,1.0,7.0,100,0.00,,,0.00,,2013-07-22 12:33:00,
2013-07-22 08:43:00,76.0,76.0,29.92,ENE,63,1.0,7.0,100,0.00,,,0.00,,2013-07-22 12:43:00,
2013-07-22 08:53:00,77.0,77.0,29.92,ENE,68,1.0,7.0,100,0.00,,,0.00,,2013-07-22 12:53:00,
2013-07-22 09:01:00,77.0,77.0,29.92,NE,45,1.0,7.0,100,0.00,,,0.00,,2013-07-22 13:01:00,
2013-07-22 09:22:00,77.0,77.0,29.92,ENE,65,1.0,7.0,100,0.00,,,0.00,,2013-07-22 13:22:00,
2013-07-22 09:32:00,77.0,77.0,29.92,East,99,2.0,7.0,100,0.00,,,0.00,,2013-07-22 13:32:00,
2013-07-22 09:43:00,77.0,77.0,29.92,NNE,24,0.0,7.0,100,0.00,,,0.00,,2013-07-22 13:43:00,
2013-07-22 09:53:00,77.0,77.0,29.92,ESE,116,2.0,7.0,100,0.00,,,0.00,,2013-07-22 13:53:00,
2013-07-22 10:02:00,77.0,77.0,29.92,ESE,116,2.0,7.0,100,0.00,,,0.00,,2013-07-22 14:02:00,
2013-07-22 10:32:00,78.0,78.0,29.92,SSE,153,2.0,7.0,100,0.00,,,0.00,,2013-07-22 14:32:00,
2013-07-22 10:43:00,77.0,77.0,29.93,East,97,1.0,7.0,100,0.00,,,0.00,,2013-07-22 14:43:00,
2013-07-22 10:53:00,77.0,77.0,29.93,East,97,1.0,7.0,100,0.00,,,0.00,,2013-07-22 14:53:00,
2013-07-22 11:02:00,77.0,77.0,29.92,East,85,3.0,7.0,100,0.00,,,0.00,,2013-07-22 15:02:00,
2013-07-22 11:22:00,78.0,78.0,29.92,SE,129,3.0,10.0,100,0.00,,,0.00,,2013-07-22 15:22:00,
2013-07-22 11:33:00,78.0,78.0,29.92,SE,129,3.0,10.0,100,0.00,,,0.00,,2013-07-22 15:33:00,
2013-07-22 11:52:00,79.0,79.0,29.92,East,90,5.0,10.0,100,0.00,,,0.00,,2013-07-22 15:52:00,
2013-07-22 12:01:00,78.0,78.0,29.92,ENE,76,5.0,10.0,100,0.00,,,0.00,,2013-07-22 16:01:00,
2013-07-22 12:22:00,79.0,79.0,29.92,ESE,122,3.0,10.0,100,0.00,,,0.00,,2013-07-22 16:22:00,
2013-07-22 14:05:00,80.0,80.0,29.88,SE,139,2.0,10.0,99,0.00,,,0.00,,2013-07-22 18:05:00,
2013-07-22 15:06:00,77.0,77.0,29.88,SSE,150,2.0,10.0,100,0.00,,,0.00,,2013-07-22 19:06:00,
2013-07-22 15:17:00,77.0,77.0,29.87,East,85,2.0,10.0,100,0.00,,,0.00,,2013-07-22 19:17:00,
2013-07-22 15:37:00,78.0,78.0,29.85,SE,143,3.0,10.0,100,0.00,,,0.00,,2013-07-22 19:37:00,
2013-07-22 15:46:00,78.0,78.0,29.85,SE,143,3.0,10.0,100,0.00,,,0.00,,2013-07-22 19:46:00,
2013-07-22 15:55:00,80.0,80.0,29.85,ESE,117,3.0,10.0,100,0.00,,,0.00,,2013-07-22 19:55:00,
2013-07-22 16:05:00,80.0,80.0,29.85,ESE,117,3.0,10.0,100,0.00,,,0.00,,2013-07-22 20:05:00,
2013-07-22 16:16:00,80.0,80.0,29.85,ESE,117,3.0,10.0,100,0.00,,,0.00,,2013-07-22 20:16:00,
2013-07-22 16:22:00,80.0,80.0,29.84,East,90,3.0,10.0,100,0.00,,,0.00,,2013-07-22 20:22:00,
2013-07-22 16:43:00,80.0,80.0,29.83,ENE,78,3.0,10.0,100,0.00,,,0.00,,2013-07-22 20:43:00,
2013-07-22 16:52:00,80.0,80.0,29.83,ENE,78,3.0,10.0,100,0.00,,,0.00,,2013-07-22 20:52:00,
2013-07-22 17:01:00,80.0,80.0,29.83,East,100,2.0,10.0,100,0.00,,,0.00,,2013-07-22 21:01:00,
2013-07-22 17:12:00,80.0,80.0,29.83,ESE,118,5.0,10.0,100,0.00,,,0.00,,2013-07-22 21:12:00,
2013-07-22 17:22:00,80.0,80.0,29.83,ESE,118,5.0,10.0,100,0.00,,,0.00,,2013-07-22 21:22:00,
2013-07-22 17:32:00,79.0,79.0,29.82,East,88,5.0,12.0,100,0.00,,,0.00,,2013-07-22 21:32:00,
2013-07-22 17:43:00,78.0,78.0,29.83,ESE,121,5.0,12.0,100,0.00,,,0.00,,2013-07-22 21:43:00,
2013-07-22 17:53:00,78.0,78.0,29.82,ESE,111,2.0,12.0,100,0.00,,,0.00,,2013-07-22 21:53:00,
2013-07-22 18:02:00,78.0,78.0,29.82,NE,51,1.0,12.0,100,0.00,,,0.00,,2013-07-22 22:02:00,
2013-07-22 18:11:00,78.0,78.0,29.82,NE,51,1.0,12.0,100,0.00,,,0.00,,2013-07-22 22:11:00,
2013-07-22 18:32:00,78.0,78.0,29.81,ESE,107,2.0,12.0,100,0.00,,,0.00,,2013-07-22 22:32:00,
2013-07-22 18:43:00,78.0,78.0,29.81,East,84,2.0,12.0,100,0.00,,,0.00,,2013-07-22 22:43:00,
2013-07-22 18:52:00,78.0,78.0,29.81,ESE,105,2.0,12.0,100,0.00,,,0.00,,2013-07-22 22:52:00,
2013-07-22 19:02:00,78.0,78.0,29.81,East,96,2.0,12.0,100,0.00,,,0.00,,2013-07-22 23:02:00,
2013-07-22 19:11:00,78.0,78.0,29.81,East,96,2.0,12.0,100,0.00,,,0.00,,2013-07-22 23:11:00,
2013-07-22 19:32:00,78.0,78.0,29.81,SE,124,2.0,12.0,100,0.00,,,0.00,,2013-07-22 23:32:00,
2013-07-22 19:43:00,78.0,78.0,29.81,East,92,1.0,12.0,100,0.00,,,0.00,,2013-07-22 23:43:00,
2013-07-22 19:52:00,78.0,78.0,29.81,SE,127,1.0,12.0,100,0.00,,,0.00,,2013-07-22 23:52:00,
2013-07-22 20:12:00,78.0,78.0,29.80,SE,131,0.0,12.0,100,0.00,,,0.00,,2013-07-23 00:12:00,
2013-07-22 20:32:00,78.0,78.0,29.80,East,90,1.0,12.0,100,0.00,,,0.00,,2013-07-23 00:32:00,
2013-07-22 21:01:00,78.0,78.0,29.79,East,90,0.0,12.0,100,0.00,,,0.00,,2013-07-23 01:01:00,
2013-07-22 21:43:00,77.0,77.0,29.79,ESE,106,1.0,12.0,100,0.00,,,0.00,,2013-07-23 01:43:00,
2013-07-22 21:53:00,77.0,77.0,29.79,ESE,106,1.0,12.0,100,0.00,,,0.00,,2013-07-23 01:53:00,
2013-07-22 22:02:00,77.0,77.0,29.79,ESE,106,1.0,12.0,100,0.00,,,0.00,,2013-07-23 02:02:00,
2013-07-22 22:11:00,77.0,77.0,29.79,ESE,106,1.0,12.0,100,0.00,,,0.00,,2013-07-23 02:11:00,